Hourly Data Report for July 17, 2021

ALGONQUIN PARK EAST GATE
ONTARIO
Current Station Operator: ECCC - MSC

45°32'00.000" N
78°16'00.000" W
397.00 m
6080192
71581
TNK

Download Data

Hourly Data (July 2021)
Hourly Data Report for July 17, 2021
TIME
LST
Temp Definition
°C
Dew Point Definition
°C
Rel Hum Definition
%
Precip. Amount Definition
mm

Wind Dir Definition
10's deg

Wind Spd Definition
km/h
Visibility Definition
km
Stn Press Definition
kPa
Hmdx Definition


Wind Chill Definition


Weather Definition


00:00 14.0 13.4 96 0.0   0   97.28     LegendNANA
01:00 13.7 13.2 97 0.0   0   97.25     LegendNANA
02:00 13.3 12.8 97 0.0   0   97.24     LegendNANA
03:00 13.0 12.6 97 0.0   0   97.23     LegendNANA
04:00 12.7 12.3 97 0.0   0   97.24     LegendNANA
05:00 12.7 12.3 97 0.0   0   97.28     LegendNANA
06:00 13.5 13.1 98 0.0   0   97.33     LegendNANA
07:00 14.5 14.1 98 0.0   0   97.36     LegendNANA
08:00 16.9 15.7 93 0.0   0   97.35     LegendNANA
09:00 19.2 16.4 84 0.0 0 1   97.35     LegendNANA
10:00 21.7 16.4 72 0.0 0 1   97.37 27   LegendNANA
11:00 23.2 15.7 63 0.0 1 1   97.38 28   LegendNANA
12:00 23.5 15.8 62 0.0 7 3   97.34 28   LegendNANA
13:00 23.8 15.9 61 0.0 11 3   97.32 28   LegendNANA
14:00 24.4 15.1 56 0.0 6 3   97.32 28   LegendNANA
15:00 24.1 15.3 58 0.0 7 2   97.28 28   LegendNANA
16:00 23.5 17.6 70 0.0 0 1   97.25 29   LegendNANA
17:00 23.7 16.6 64 0.0 8 2   97.25 29   LegendNANA
18:00 23.6 17.3 68 0.0 36 2   97.24 29   LegendNANA
19:00 21.7 18.0 79 0.0 0 1   97.24 28   LegendNANA
20:00 18.8 17.0 89 0.0   0   97.26     LegendNANA
21:00 17.1 16.1 94 0.0 7 2   97.33     LegendNANA
22:00 16.3 15.6 96 0.0   0   97.31     LegendNANA
23:00 15.6 15.0 96 0.0 13 1   97.29     LegendNANA

Notes on Data Quality.

Legend

  • E = Estimated
  • M = Missing
  • NA = Not Available*
  • [empty] = Indicates an unobserved value
Date modified: